Year,Month,Day,Hour,Minute,Value (Times are PST for temperature in C)
2006,04,25,00,00,10.80
2006,04,25,00,01,10.70
2006,04,25,00,02,10.70
2006,04,25,00,03,10.60
2006,04,25,00,04,10.60
2006,04,25,00,05,10.50
2006,04,25,00,06,10.40
2006,04,25,00,07,10.40
2006,04,25,00,08,10.30
2006,04,25,00,09,10.20
2006,04,25,00,10,10.10
2006,04,25,00,11,10.10
2006,04,25,00,12,10.10
2006,04,25,00,13,10.10
2006,04,25,00,14,9.90
2006,04,25,00,15,9.90
2006,04,25,00,16,9.80
2006,04,25,00,17,9.80
2006,04,25,00,18,9.80
2006,04,25,00,19,9.70
2006,04,25,00,20,9.70
2006,04,25,00,21,9.60
2006,04,25,00,22,9.50
2006,04,25,00,23,9.50
2006,04,25,00,24,9.40
2006,04,25,00,25,9.40
2006,04,25,00,26,9.40
2006,04,25,00,27,9.40
2006,04,25,00,28,9.30
2006,04,25,00,29,9.30
2006,04,25,00,30,9.30
2006,04,25,00,31,9.20
2006,04,25,00,32,9.20
2006,04,25,00,33,9.20
2006,04,25,00,34,9.20
2006,04,25,00,35,9.20
2006,04,25,00,36,9.20
2006,04,25,00,37,9.10
2006,04,25,00,38,9.10
2006,04,25,00,39,9.10
2006,04,25,00,40,9.00
2006,04,25,00,41,9.00
2006,04,25,00,42,9.00
2006,04,25,00,43,8.90
2006,04,25,00,44,8.90
2006,04,25,00,45,8.90
2006,04,25,00,46,8.80
2006,04,25,00,47,8.80
2006,04,25,00,48,8.80
2006,04,25,00,49,8.70
2006,04,25,00,50,8.70
2006,04,25,00,51,8.70
2006,04,25,00,52,8.70
2006,04,25,00,53,8.70
2006,04,25,00,54,8.70
2006,04,25,00,55,8.60
2006,04,25,00,56,8.60
2006,04,25,00,57,8.60
2006,04,25,00,58,8.50
2006,04,25,00,59,8.50
2006,04,25,01,00,8.50
2006,04,25,01,01,8.50
2006,04,25,01,02,8.40
2006,04,25,01,03,8.40
2006,04,25,01,04,8.30
2006,04,25,01,05,8.30
2006,04,25,01,06,8.30
2006,04,25,01,07,8.30
2006,04,25,01,08,8.20
2006,04,25,01,09,8.20
2006,04,25,01,10,8.20
2006,04,25,01,11,8.20
2006,04,25,01,12,8.20
2006,04,25,01,13,8.20
2006,04,25,01,14,8.20
2006,04,25,01,15,8.10
2006,04,25,01,16,8.10
2006,04,25,01,17,8.10
2006,04,25,01,18,8.00
2006,04,25,01,19,8.00
2006,04,25,01,20,8.00
2006,04,25,01,21,7.90
2006,04,25,01,22,7.90
2006,04,25,01,23,7.90
2006,04,25,01,24,7.90
2006,04,25,01,25,7.90
2006,04,25,01,26,7.80
2006,04,25,01,27,7.80
2006,04,25,01,28,7.80
2006,04,25,01,29,7.80
2006,04,25,01,30,7.80
2006,04,25,01,31,7.80
2006,04,25,01,32,7.80
2006,04,25,01,33,7.80
2006,04,25,01,34,7.80
2006,04,25,01,35,7.80
2006,04,25,01,36,7.70
2006,04,25,01,37,7.70
2006,04,25,01,38,7.60
2006,04,25,01,39,7.60
2006,04,25,01,40,7.60
2006,04,25,01,41,7.50
2006,04,25,01,42,7.50
2006,04,25,01,43,7.50
2006,04,25,01,44,7.40
2006,04,25,01,45,7.40
2006,04,25,01,46,7.40
2006,04,25,01,47,7.40
2006,04,25,01,48,7.30
2006,04,25,01,49,7.30
2006,04,25,01,50,7.30
2006,04,25,01,51,7.30
2006,04,25,01,52,7.30
2006,04,25,01,53,7.30
2006,04,25,01,54,7.30
2006,04,25,01,55,7.30
2006,04,25,01,56,7.30
2006,04,25,01,57,7.30
2006,04,25,01,58,7.30
2006,04,25,01,59,7.20
2006,04,25,02,00,7.20
2006,04,25,02,01,7.20
2006,04,25,02,02,7.20
2006,04,25,02,03,7.20
2006,04,25,02,04,7.20
2006,04,25,02,05,7.10
2006,04,25,02,06,7.10
2006,04,25,02,07,7.10
2006,04,25,02,08,7.10
2006,04,25,02,09,7.00
2006,04,25,02,10,7.00
2006,04,25,02,11,7.00
2006,04,25,02,12,7.00
2006,04,25,02,13,7.00
2006,04,25,02,14,7.00
2006,04,25,02,15,7.00
2006,04,25,02,16,7.00
2006,04,25,02,17,7.00
2006,04,25,02,18,7.00
2006,04,25,02,19,7.00
2006,04,25,02,20,7.00
2006,04,25,02,21,7.00
2006,04,25,02,22,6.90
2006,04,25,02,23,6.90
2006,04,25,02,24,6.90
2006,04,25,02,25,6.90
2006,04,25,02,26,6.80
2006,04,25,02,27,6.80
2006,04,25,02,28,6.80
2006,04,25,02,29,6.80
2006,04,25,02,30,6.80
2006,04,25,02,31,6.80
2006,04,25,02,32,6.80
2006,04,25,02,33,6.80
2006,04,25,02,34,6.70
2006,04,25,02,35,6.70
2006,04,25,02,36,6.70
2006,04,25,02,37,6.70
2006,04,25,02,38,6.70
2006,04,25,02,39,6.70
2006,04,25,02,40,6.60
2006,04,25,02,41,6.60
2006,04,25,02,42,6.60
2006,04,25,02,43,6.60
2006,04,25,02,44,6.60
2006,04,25,02,45,6.60
2006,04,25,02,46,6.50
2006,04,25,02,47,6.40
2006,04,25,02,48,6.40
2006,04,25,02,49,6.40
2006,04,25,02,50,6.40
2006,04,25,02,51,6.40
2006,04,25,02,52,6.30
2006,04,25,02,53,6.30
2006,04,25,02,54,6.30
2006,04,25,02,55,6.20
2006,04,25,02,56,6.20
2006,04,25,02,57,6.20
2006,04,25,02,58,6.20
2006,04,25,02,59,6.20
2006,04,25,03,00,6.20
2006,04,25,03,01,6.20
2006,04,25,03,02,6.20
2006,04,25,03,03,6.20
2006,04,25,03,04,6.20
2006,04,25,03,05,6.20
2006,04,25,03,06,6.20
2006,04,25,03,07,6.20
2006,04,25,03,08,6.20
2006,04,25,03,09,6.20
2006,04,25,03,10,6.20
2006,04,25,03,11,6.20
2006,04,25,03,12,6.20
2006,04,25,03,13,6.20
2006,04,25,03,14,6.30
2006,04,25,03,15,6.40
2006,04,25,03,16,6.40
2006,04,25,03,17,6.50
2006,04,25,03,18,6.60
2006,04,25,03,19,6.60
2006,04,25,03,20,6.60
2006,04,25,03,21,6.60
2006,04,25,03,22,6.60
2006,04,25,03,23,6.60
2006,04,25,03,24,6.60
2006,04,25,03,25,6.60
2006,04,25,03,26,6.60
2006,04,25,03,27,6.60
2006,04,25,03,28,6.60
2006,04,25,03,29,6.60
2006,04,25,03,30,6.60
2006,04,25,03,31,6.60
2006,04,25,03,32,6.50
2006,04,25,03,33,6.40
2006,04,25,03,34,6.40
2006,04,25,03,35,6.40
2006,04,25,03,36,6.40
2006,04,25,03,37,6.40
2006,04,25,03,38,6.30
2006,04,25,03,39,6.30
2006,04,25,03,40,6.30
2006,04,25,03,41,6.20
2006,04,25,03,42,6.20
2006,04,25,03,43,6.20
2006,04,25,03,44,6.10
2006,04,25,03,45,6.00
2006,04,25,03,46,6.00
2006,04,25,03,47,6.00
2006,04,25,03,48,6.00
2006,04,25,03,49,5.90
2006,04,25,03,50,5.90
2006,04,25,03,51,5.90
2006,04,25,03,52,5.80
2006,04,25,03,53,5.80
2006,04,25,03,54,5.70
2006,04,25,03,55,5.70
2006,04,25,03,56,5.70
2006,04,25,03,57,5.70
2006,04,25,03,58,5.70
2006,04,25,03,59,5.60
2006,04,25,04,00,5.60
2006,04,25,04,01,5.60
2006,04,25,04,02,5.60
2006,04,25,04,03,5.60
2006,04,25,04,04,5.50
2006,04,25,04,05,5.50
2006,04,25,04,06,5.50
2006,04,25,04,07,5.50
2006,04,25,04,08,5.40
2006,04,25,04,09,5.40
2006,04,25,04,10,5.40
2006,04,25,04,11,5.30
2006,04,25,04,12,5.30
2006,04,25,04,13,5.30
2006,04,25,04,14,5.30
2006,04,25,04,15,5.30
2006,04,25,04,16,5.30
2006,04,25,04,17,5.30
2006,04,25,04,18,5.30
2006,04,25,04,19,5.30
2006,04,25,04,20,5.20
2006,04,25,04,21,5.20
2006,04,25,04,22,5.20
2006,04,25,04,23,5.20
2006,04,25,04,24,5.10
2006,04,25,04,25,5.10
2006,04,25,04,26,5.10
2006,04,25,04,27,5.10
2006,04,25,04,28,5.10
2006,04,25,04,29,5.10
2006,04,25,04,30,5.10
2006,04,25,04,31,5.10
2006,04,25,04,32,5.10
2006,04,25,04,33,5.10
2006,04,25,04,34,5.00
2006,04,25,04,35,4.90
2006,04,25,04,36,4.90
2006,04,25,04,37,4.90
2006,04,25,04,38,4.90
2006,04,25,04,39,4.90
2006,04,25,04,40,4.90
2006,04,25,04,41,4.90
2006,04,25,04,42,4.90
2006,04,25,04,43,4.90
2006,04,25,04,44,4.90
2006,04,25,04,45,4.90
2006,04,25,04,46,4.80
2006,04,25,04,47,4.80
2006,04,25,04,48,4.80
2006,04,25,04,49,4.80
2006,04,25,04,50,4.80
2006,04,25,04,51,4.80
2006,04,25,04,52,4.80
2006,04,25,04,53,4.80
2006,04,25,04,54,4.80
2006,04,25,04,55,4.80
2006,04,25,04,56,4.70
2006,04,25,04,57,4.70
2006,04,25,04,58,4.70
2006,04,25,04,59,4.60
2006,04,25,05,00,4.60
2006,04,25,05,01,4.60
2006,04,25,05,02,4.60
2006,04,25,05,03,4.60
2006,04,25,05,04,4.60
2006,04,25,05,05,4.60
2006,04,25,05,06,4.60
2006,04,25,05,07,4.60
2006,04,25,05,08,4.60
2006,04,25,05,09,4.60
2006,04,25,05,10,4.60
2006,04,25,05,11,4.60
2006,04,25,05,12,4.60
2006,04,25,05,13,4.60
2006,04,25,05,14,4.50
2006,04,25,05,15,4.50
2006,04,25,05,16,4.50
2006,04,25,05,17,4.50
2006,04,25,05,18,4.50
2006,04,25,05,19,4.60
2006,04,25,05,20,4.60
2006,04,25,05,21,4.60
2006,04,25,05,22,4.60
2006,04,25,05,23,4.60
2006,04,25,05,24,4.60
2006,04,25,05,25,4.60
2006,04,25,05,26,4.60
2006,04,25,05,27,4.60
2006,04,25,05,28,4.50
2006,04,25,05,29,4.50
2006,04,25,05,30,4.50
2006,04,25,05,31,4.50
2006,04,25,05,32,4.50
2006,04,25,05,33,4.50
2006,04,25,05,34,4.50
2006,04,25,05,35,4.40
2006,04,25,05,36,4.40
2006,04,25,05,37,4.40
2006,04,25,05,38,4.40
2006,04,25,05,39,4.40
2006,04,25,05,40,4.40
2006,04,25,05,41,4.40
2006,04,25,05,42,4.30
2006,04,25,05,43,4.30
2006,04,25,05,44,4.30
2006,04,25,05,45,4.30
2006,04,25,05,46,4.20
2006,04,25,05,47,4.20
2006,04,25,05,48,4.20
2006,04,25,05,49,4.20
2006,04,25,05,50,4.20
2006,04,25,05,51,4.20
2006,04,25,05,52,4.20
2006,04,25,05,53,4.20
2006,04,25,05,54,4.10
2006,04,25,05,55,4.10
2006,04,25,05,56,4.10
2006,04,25,05,57,4.10
2006,04,25,05,58,4.00
2006,04,25,05,59,4.00
2006,04,25,06,00,4.00
2006,04,25,06,01,4.00
2006,04,25,06,02,4.00
2006,04,25,06,03,4.00
2006,04,25,06,04,4.00
2006,04,25,06,05,4.00
2006,04,25,06,06,4.10
2006,04,25,06,07,4.10
2006,04,25,06,08,4.00
2006,04,25,06,09,4.00
2006,04,25,06,10,4.00
2006,04,25,06,11,4.00
2006,04,25,06,12,4.00
2006,04,25,06,13,3.90
2006,04,25,06,14,3.90
2006,04,25,06,15,3.90
2006,04,25,06,16,3.80
2006,04,25,06,17,3.80
2006,04,25,06,18,3.80
2006,04,25,06,19,3.80
2006,04,25,06,20,3.80
2006,04,25,06,21,3.80
2006,04,25,06,22,3.70
2006,04,25,06,23,3.70
2006,04,25,06,24,3.70
2006,04,25,06,25,3.70
2006,04,25,06,26,3.70
2006,04,25,06,27,3.70
2006,04,25,06,28,3.70
2006,04,25,06,29,3.70
2006,04,25,06,30,3.60
2006,04,25,06,31,3.60
2006,04,25,06,32,3.60
2006,04,25,06,33,3.60
2006,04,25,06,34,3.60
2006,04,25,06,35,3.60
2006,04,25,06,36,3.60
2006,04,25,06,37,3.60
2006,04,25,06,38,3.60
2006,04,25,06,39,3.60
2006,04,25,06,40,3.60
2006,04,25,06,41,3.60
2006,04,25,06,42,3.60
2006,04,25,06,43,3.60
2006,04,25,06,44,3.60
2006,04,25,06,45,3.60
2006,04,25,06,46,3.60
2006,04,25,06,47,3.70
2006,04,25,06,48,3.70
2006,04,25,06,49,3.70
2006,04,25,06,50,3.70
2006,04,25,06,51,3.70
2006,04,25,06,52,3.80
2006,04,25,06,53,3.80
2006,04,25,06,54,3.80
2006,04,25,06,55,3.80
2006,04,25,06,56,3.80
2006,04,25,06,57,3.80
2006,04,25,06,58,3.80
2006,04,25,06,59,3.80
2006,04,25,07,00,3.80
2006,04,25,07,01,3.90
2006,04,25,07,02,3.90
2006,04,25,07,03,4.00
2006,04,25,07,04,4.00
2006,04,25,07,05,4.00
2006,04,25,07,06,4.00
2006,04,25,07,07,4.10
2006,04,25,07,08,4.10
2006,04,25,07,09,4.10
2006,04,25,07,10,4.10
2006,04,25,07,11,4.10
2006,04,25,07,12,4.10
2006,04,25,07,13,4.20
2006,04,25,07,14,4.20
2006,04,25,07,15,4.20
2006,04,25,07,16,4.20
2006,04,25,07,17,4.30
2006,04,25,07,18,4.30
2006,04,25,07,19,4.40
2006,04,25,07,20,4.50
2006,04,25,07,21,4.60
2006,04,25,07,22,4.70
2006,04,25,07,23,4.80
2006,04,25,07,24,4.90
2006,04,25,07,25,5.10
2006,04,25,07,26,5.10
2006,04,25,07,27,5.20
2006,04,25,07,28,5.30
2006,04,25,07,29,5.50
2006,04,25,07,30,5.60
2006,04,25,07,31,5.70
2006,04,25,07,32,5.80
2006,04,25,07,33,5.90
2006,04,25,07,34,6.00
2006,04,25,07,35,6.10
2006,04,25,07,36,6.20
2006,04,25,07,37,6.30
2006,04,25,07,38,6.40
2006,04,25,07,39,6.40
2006,04,25,07,40,6.60
2006,04,25,07,41,6.70
2006,04,25,07,42,6.80
2006,04,25,07,43,6.90
2006,04,25,07,44,7.00
2006,04,25,07,45,7.00
2006,04,25,07,46,7.10
2006,04,25,07,47,7.20
2006,04,25,07,48,7.30
2006,04,25,07,49,7.40
2006,04,25,07,50,7.50
2006,04,25,07,51,7.60
2006,04,25,07,52,7.80
2006,04,25,07,53,7.90
2006,04,25,07,54,8.00
2006,04,25,07,55,8.10
2006,04,25,07,56,8.20
2006,04,25,07,57,8.40
2006,04,25,07,58,8.50
2006,04,25,07,59,8.60
2006,04,25,08,00,8.80
2006,04,25,08,01,8.90
2006,04,25,08,02,9.00
2006,04,25,08,03,9.10
2006,04,25,08,04,9.20
2006,04,25,08,05,9.20
2006,04,25,08,06,9.20
2006,04,25,08,07,9.30
2006,04,25,08,08,9.30
2006,04,25,08,09,9.40
2006,04,25,08,10,9.50
2006,04,25,08,11,9.50
2006,04,25,08,12,9.60
2006,04,25,08,13,9.70
2006,04,25,08,14,9.80
2006,04,25,08,15,9.90
2006,04,25,08,16,10.00
2006,04,25,08,17,10.10
2006,04,25,08,18,10.10
2006,04,25,08,19,10.20
2006,04,25,08,20,10.20
2006,04,25,08,21,10.20
2006,04,25,08,22,10.30
2006,04,25,08,23,10.40
2006,04,25,08,24,10.50
2006,04,25,08,25,10.60
2006,04,25,08,26,10.80
2006,04,25,08,27,10.90
2006,04,25,08,28,11.00
2006,04,25,08,29,11.10
2006,04,25,08,30,11.20
2006,04,25,08,31,11.30
2006,04,25,08,32,11.40
2006,04,25,08,33,11.50
2006,04,25,08,34,11.60
2006,04,25,08,35,11.70
2006,04,25,08,36,11.80
2006,04,25,08,37,11.90
2006,04,25,08,38,12.00
2006,04,25,08,39,12.10
2006,04,25,08,40,12.10
2006,04,25,08,41,12.20
2006,04,25,08,42,12.30
2006,04,25,08,43,12.30
2006,04,25,08,44,12.30
2006,04,25,08,45,12.40
2006,04,25,08,46,12.50
2006,04,25,08,47,12.50
2006,04,25,08,48,12.60
2006,04,25,08,49,12.60
2006,04,25,08,50,12.70
2006,04,25,08,51,12.70
2006,04,25,08,52,12.70
2006,04,25,08,53,12.70
2006,04,25,08,54,12.70
2006,04,25,08,55,12.70
2006,04,25,08,56,12.70
2006,04,25,08,57,12.70
2006,04,25,08,58,12.70
2006,04,25,08,59,12.70
2006,04,25,09,00,12.70
2006,04,25,09,01,12.70
2006,04,25,09,02,12.70
2006,04,25,09,03,12.70
2006,04,25,09,04,12.80
2006,04,25,09,05,12.80
2006,04,25,09,06,12.90
2006,04,25,09,07,12.90
2006,04,25,09,08,13.00
2006,04,25,09,09,13.00
2006,04,25,09,10,13.10
2006,04,25,09,11,13.10
2006,04,25,09,12,13.20
2006,04,25,09,13,13.30
2006,04,25,09,14,13.30
2006,04,25,09,15,13.40
2006,04,25,09,16,13.50
2006,04,25,09,17,13.60
2006,04,25,09,18,13.60
2006,04,25,09,19,13.70
2006,04,25,09,20,13.70
2006,04,25,09,21,13.80
2006,04,25,09,22,13.90
2006,04,25,09,23,13.90
2006,04,25,09,24,14.00
2006,04,25,09,25,14.10
2006,04,25,09,26,14.10
2006,04,25,09,27,14.10
2006,04,25,09,28,14.10
2006,04,25,09,29,14.10
2006,04,25,09,30,14.10
2006,04,25,09,31,14.00
2006,04,25,09,32,13.90
2006,04,25,09,33,13.80
2006,04,25,09,34,13.80
2006,04,25,09,35,13.90
2006,04,25,09,36,13.90
2006,04,25,09,37,13.90
2006,04,25,09,38,14.00
2006,04,25,09,39,14.00
2006,04,25,09,40,14.00
2006,04,25,09,41,14.10
2006,04,25,09,42,14.20
2006,04,25,09,43,14.30
2006,04,25,09,44,14.50
2006,04,25,09,45,14.50
2006,04,25,09,46,14.50
2006,04,25,09,47,14.50
2006,04,25,09,48,14.40
2006,04,25,09,49,14.40
2006,04,25,09,50,14.40
2006,04,25,09,51,14.40
2006,04,25,09,52,14.40
2006,04,25,09,53,14.50
2006,04,25,09,54,14.50
2006,04,25,09,55,14.40
2006,04,25,09,56,14.30
2006,04,25,09,57,14.30
2006,04,25,09,58,14.20
2006,04,25,09,59,14.20
2006,04,25,10,00,14.20
2006,04,25,10,01,14.10
2006,04,25,10,02,14.10
2006,04,25,10,03,14.00
2006,04,25,10,04,14.00
2006,04,25,10,05,13.90
2006,04,25,10,06,13.90
2006,04,25,10,07,13.80
2006,04,25,10,08,13.80
2006,04,25,10,09,13.80
2006,04,25,10,10,13.80
2006,04,25,10,11,13.90
2006,04,25,10,12,13.90
2006,04,25,10,13,14.00
2006,04,25,10,14,14.10
2006,04,25,10,15,14.10
2006,04,25,10,16,14.10
2006,04,25,10,17,14.20
2006,04,25,10,18,14.20
2006,04,25,10,19,14.30
2006,04,25,10,20,14.30
2006,04,25,10,21,14.30
2006,04,25,10,22,14.30
2006,04,25,10,23,14.20
2006,04,25,10,24,14.20
2006,04,25,10,25,14.10
2006,04,25,10,26,14.20
2006,04,25,10,27,14.20
2006,04,25,10,28,14.20
2006,04,25,10,29,14.20
2006,04,25,10,30,14.20
2006,04,25,10,31,14.20
2006,04,25,10,32,14.20
2006,04,25,10,33,14.20
2006,04,25,10,34,14.20
2006,04,25,10,35,14.20
2006,04,25,10,36,14.20
2006,04,25,10,37,14.20
2006,04,25,10,38,14.20
2006,04,25,10,39,14.20
2006,04,25,10,40,14.30
2006,04,25,10,41,14.30
2006,04,25,10,42,14.40
2006,04,25,10,43,14.50
2006,04,25,10,44,14.50
2006,04,25,10,45,14.50
2006,04,25,10,46,14.50
2006,04,25,10,47,14.40
2006,04,25,10,48,14.30
2006,04,25,10,49,14.20
2006,04,25,10,50,14.20
2006,04,25,10,51,14.20
2006,04,25,10,52,14.20
2006,04,25,10,53,14.30
2006,04,25,10,54,14.40
2006,04,25,10,55,14.40
2006,04,25,10,56,14.40
2006,04,25,10,57,14.40
2006,04,25,10,58,14.50
2006,04,25,10,59,14.60
2006,04,25,11,00,14.70
2006,04,25,11,01,14.80
2006,04,25,11,02,14.80
2006,04,25,11,03,14.80
2006,04,25,11,04,14.80
2006,04,25,11,05,14.80
2006,04,25,11,06,14.80
2006,04,25,11,07,14.80
2006,04,25,11,08,14.80
2006,04,25,11,09,14.90
2006,04,25,11,10,15.00
2006,04,25,11,11,15.00
2006,04,25,11,12,15.00
2006,04,25,11,13,15.10
2006,04,25,11,14,15.10
2006,04,25,11,15,15.10
2006,04,25,11,16,15.10
2006,04,25,11,17,15.20
2006,04,25,11,18,15.30
2006,04,25,11,19,15.30
2006,04,25,11,20,15.30
2006,04,25,11,21,15.30
2006,04,25,11,22,15.30
2006,04,25,11,23,15.30
2006,04,25,11,24,15.40
2006,04,25,11,25,15.30
2006,04,25,11,26,15.30
2006,04,25,11,27,15.20
2006,04,25,11,28,15.10
2006,04,25,11,29,15.10
2006,04,25,11,30,15.10
2006,04,25,11,31,15.10
2006,04,25,11,32,15.10
2006,04,25,11,33,15.10
2006,04,25,11,34,15.10
2006,04,25,11,35,15.10
2006,04,25,11,36,15.10
2006,04,25,11,37,15.10
2006,04,25,11,38,15.10
2006,04,25,11,39,15.20
2006,04,25,11,40,15.10
2006,04,25,11,41,15.10
2006,04,25,11,42,15.10
2006,04,25,11,43,15.10
2006,04,25,11,44,15.10
2006,04,25,11,45,15.10
2006,04,25,11,46,15.00
2006,04,25,11,47,14.90
2006,04,25,11,48,15.00
2006,04,25,11,49,15.10
2006,04,25,11,50,15.10
2006,04,25,11,51,15.10
2006,04,25,11,52,15.10
2006,04,25,11,53,15.10
2006,04,25,11,54,15.10
2006,04,25,11,55,15.20
2006,04,25,11,56,15.20
2006,04,25,11,57,15.30
2006,04,25,11,58,15.30
2006,04,25,11,59,15.20
2006,04,25,12,00,15.10
2006,04,25,12,01,15.10
2006,04,25,12,02,15.10
2006,04,25,12,03,15.10
2006,04,25,12,04,15.20
2006,04,25,12,05,15.30
2006,04,25,12,06,15.40
2006,04,25,12,07,15.40
2006,04,25,12,08,15.50
2006,04,25,12,09,15.60
2006,04,25,12,10,15.60
2006,04,25,12,11,15.60
2006,04,25,12,12,15.50
2006,04,25,12,13,15.60
2006,04,25,12,14,15.60
2006,04,25,12,15,15.60
2006,04,25,12,16,15.60
2006,04,25,12,17,15.60
2006,04,25,12,18,15.70
2006,04,25,12,19,15.80
2006,04,25,12,20,15.80
2006,04,25,12,21,15.80
2006,04,25,12,22,15.80
2006,04,25,12,23,15.80
2006,04,25,12,24,15.80
2006,04,25,12,25,15.80
2006,04,25,12,26,15.80
2006,04,25,12,27,15.80
2006,04,25,12,28,15.80
2006,04,25,12,29,15.80
2006,04,25,12,30,15.80
2006,04,25,12,31,15.80
2006,04,25,12,32,15.90
2006,04,25,12,33,15.90
2006,04,25,12,34,15.80
2006,04,25,12,35,15.80
2006,04,25,12,36,15.80
2006,04,25,12,37,15.80
2006,04,25,12,38,15.70
2006,04,25,12,39,15.70
2006,04,25,12,40,15.70
2006,04,25,12,41,15.80
2006,04,25,12,42,15.80
2006,04,25,12,43,15.90
2006,04,25,12,44,15.90
2006,04,25,12,45,15.90
2006,04,25,12,46,16.00
2006,04,25,12,47,16.10
2006,04,25,12,48,16.20
2006,04,25,12,49,16.30
2006,04,25,12,50,16.40
2006,04,25,12,51,16.40
2006,04,25,12,52,16.40
2006,04,25,12,53,16.30
2006,04,25,12,54,16.20
2006,04,25,12,55,16.10
2006,04,25,12,56,16.10
2006,04,25,12,57,16.10
2006,04,25,12,58,16.20
2006,04,25,12,59,16.20
2006,04,25,13,00,16.20
2006,04,25,13,01,16.20
2006,04,25,13,02,16.20
2006,04,25,13,03,16.20
2006,04,25,13,04,16.20
2006,04,25,13,05,16.30
2006,04,25,13,06,16.20
2006,04,25,13,07,16.30
2006,04,25,13,08,16.30
2006,04,25,13,09,16.30
2006,04,25,13,10,16.30
2006,04,25,13,11,16.30
2006,04,25,13,12,16.30
2006,04,25,13,13,16.40
2006,04,25,13,14,16.50
2006,04,25,13,15,16.70
2006,04,25,13,16,16.70
2006,04,25,13,17,16.70
2006,04,25,13,18,16.70
2006,04,25,13,19,16.70
2006,04,25,13,20,16.70
2006,04,25,13,21,16.70
2006,04,25,13,22,16.70
2006,04,25,13,23,16.70
2006,04,25,13,24,16.70
2006,04,25,13,25,16.70
2006,04,25,13,26,16.70
2006,04,25,13,27,16.70
2006,04,25,13,28,16.70
2006,04,25,13,29,16.70
2006,04,25,13,30,16.70
2006,04,25,13,31,16.70
2006,04,25,13,32,16.70
2006,04,25,13,33,16.70
2006,04,25,13,34,16.70
2006,04,25,13,35,16.70
2006,04,25,13,36,16.70
2006,04,25,13,37,16.70
2006,04,25,13,38,16.80
2006,04,25,13,39,16.90
2006,04,25,13,40,17.10
2006,04,25,13,41,17.20
2006,04,25,13,42,17.30
2006,04,25,13,43,17.30
2006,04,25,13,44,17.30
2006,04,25,13,45,17.30
2006,04,25,13,46,17.30
2006,04,25,13,47,17.40
2006,04,25,13,48,17.50
2006,04,25,13,49,17.50
2006,04,25,13,50,17.50
2006,04,25,13,51,17.50
2006,04,25,13,52,17.50
2006,04,25,13,53,17.50
2006,04,25,13,54,17.50
2006,04,25,13,55,17.40
2006,04,25,13,56,17.50
2006,04,25,13,57,17.60
2006,04,25,13,58,17.60
2006,04,25,13,59,17.70
2006,04,25,14,00,17.80
2006,04,25,14,01,17.90
2006,04,25,14,02,18.00
2006,04,25,14,03,17.90
2006,04,25,14,04,17.80
2006,04,25,14,05,17.80
2006,04,25,14,06,17.90
2006,04,25,14,07,18.00
2006,04,25,14,08,18.10
2006,04,25,14,09,18.20
2006,04,25,14,10,18.40
2006,04,25,14,11,18.60
2006,04,25,14,12,18.80
2006,04,25,14,13,18.90
2006,04,25,14,14,19.10
2006,04,25,14,15,19.10
2006,04,25,14,16,19.10
2006,04,25,14,17,19.10
2006,04,25,14,18,19.10
2006,04,25,14,19,19.10
2006,04,25,14,20,19.10
2006,04,25,14,21,19.00
2006,04,25,14,22,18.90
2006,04,25,14,23,18.80
2006,04,25,14,24,18.80
2006,04,25,14,25,18.80
2006,04,25,14,26,18.80
2006,04,25,14,27,18.80
2006,04,25,14,28,18.90
2006,04,25,14,29,18.90
2006,04,25,14,30,18.90
2006,04,25,14,31,18.90
2006,04,25,14,32,18.80
2006,04,25,14,33,18.80
2006,04,25,14,34,18.90
2006,04,25,14,35,19.00
2006,04,25,14,36,19.20
2006,04,25,14,37,19.30
2006,04,25,14,38,19.30
2006,04,25,14,39,19.30
2006,04,25,14,40,19.40
2006,04,25,14,41,19.40
2006,04,25,14,42,19.40
2006,04,25,14,43,19.40
2006,04,25,14,44,19.40
2006,04,25,14,45,19.40
2006,04,25,14,46,19.50
2006,04,25,14,47,19.60
2006,04,25,14,48,19.60
2006,04,25,14,49,19.70
2006,04,25,14,50,19.80
2006,04,25,14,51,19.90
2006,04,25,14,52,19.80
2006,04,25,14,53,19.80
2006,04,25,14,54,19.70
2006,04,25,14,55,19.60
2006,04,25,14,56,19.60
2006,04,25,14,57,19.60
2006,04,25,14,58,19.60
2006,04,25,14,59,19.60
2006,04,25,15,00,19.60
2006,04,25,15,01,19.70
2006,04,25,15,02,19.80
2006,04,25,15,03,19.80
2006,04,25,15,04,19.70
2006,04,25,15,05,19.70
2006,04,25,15,06,19.70
2006,04,25,15,07,19.80
2006,04,25,15,08,19.80
2006,04,25,15,09,19.80
2006,04,25,15,10,19.90
2006,04,25,15,11,19.90
2006,04,25,15,12,19.90
2006,04,25,15,13,20.00
2006,04,25,15,14,20.10
2006,04,25,15,15,20.20
2006,04,25,15,16,20.20
2006,04,25,15,17,20.20
2006,04,25,15,18,20.10
2006,04,25,15,19,20.00
2006,04,25,15,20,19.90
2006,04,25,15,21,19.90
2006,04,25,15,22,20.00
2006,04,25,15,23,20.10
2006,04,25,15,24,20.20
2006,04,25,15,25,20.20
2006,04,25,15,26,20.40
2006,04,25,15,27,20.40
2006,04,25,15,28,20.40
2006,04,25,15,29,20.40
2006,04,25,15,30,20.30
2006,04,25,15,31,20.20
2006,04,25,15,32,20.20
2006,04,25,15,33,20.10
2006,04,25,15,34,20.00
2006,04,25,15,35,19.90
2006,04,25,15,36,19.90
2006,04,25,15,37,19.90
2006,04,25,15,38,19.90
2006,04,25,15,39,19.90
2006,04,25,15,40,19.90
2006,04,25,15,41,19.90
2006,04,25,15,42,19.90
2006,04,25,15,43,19.90
2006,04,25,15,44,20.10
2006,04,25,15,45,20.10
2006,04,25,15,46,20.10
2006,04,25,15,47,20.10
2006,04,25,15,48,20.10
2006,04,25,15,49,20.00
2006,04,25,15,50,19.90
2006,04,25,15,51,19.90
2006,04,25,15,52,19.90
2006,04,25,15,53,19.90
2006,04,25,15,54,19.90
2006,04,25,15,55,20.10
2006,04,25,15,56,20.10
2006,04,25,15,57,20.10
2006,04,25,15,58,20.10
2006,04,25,15,59,20.20
2006,04,25,16,00,20.20
2006,04,25,16,01,20.30
2006,04,25,16,02,20.40
2006,04,25,16,03,20.30
2006,04,25,16,04,20.30
2006,04,25,16,05,20.20
2006,04,25,16,06,20.20
2006,04,25,16,07,20.20
2006,04,25,16,08,20.20
2006,04,25,16,09,20.00
2006,04,25,16,10,20.00
2006,04,25,16,11,20.10
2006,04,25,16,12,20.10
2006,04,25,16,13,20.10
2006,04,25,16,14,20.10
2006,04,25,16,15,20.20
2006,04,25,16,16,20.20
2006,04,25,16,17,20.20
2006,04,25,16,18,20.10
2006,04,25,16,19,20.20
2006,04,25,16,20,20.10
2006,04,25,16,21,20.10
2006,04,25,16,22,20.20
2006,04,25,16,23,20.20
2006,04,25,16,24,20.20
2006,04,25,16,25,20.10
2006,04,25,16,26,20.10
2006,04,25,16,27,20.10
2006,04,25,16,28,20.10
2006,04,25,16,29,20.20
2006,04,25,16,30,20.20
2006,04,25,16,31,20.20
2006,04,25,16,32,20.20
2006,04,25,16,33,20.10
2006,04,25,16,34,20.00
2006,04,25,16,35,19.90
2006,04,25,16,36,19.90
2006,04,25,16,37,19.90
2006,04,25,16,38,19.90
2006,04,25,16,39,19.90
2006,04,25,16,40,19.80
2006,04,25,16,41,19.90
2006,04,25,16,42,19.90
2006,04,25,16,43,19.90
2006,04,25,16,44,19.90
2006,04,25,16,45,20.00
2006,04,25,16,46,20.10
2006,04,25,16,47,20.20
2006,04,25,16,48,20.20
2006,04,25,16,49,20.20
2006,04,25,16,50,20.20
2006,04,25,16,51,20.20
2006,04,25,16,52,20.20
2006,04,25,16,53,20.20
2006,04,25,16,54,20.20
2006,04,25,16,55,20.20
2006,04,25,16,56,20.10
2006,04,25,16,57,20.00
2006,04,25,16,58,19.90
2006,04,25,16,59,19.80
2006,04,25,17,00,19.80
2006,04,25,17,01,19.80
2006,04,25,17,02,19.90
2006,04,25,17,03,19.90
2006,04,25,17,04,19.90
2006,04,25,17,05,19.90
2006,04,25,17,06,19.90
2006,04,25,17,07,20.00
2006,04,25,17,08,20.10
2006,04,25,17,09,20.10
2006,04,25,17,10,20.20
2006,04,25,17,11,20.20
2006,04,25,17,12,20.20
2006,04,25,17,13,20.30
2006,04,25,17,14,20.30
2006,04,25,17,15,20.20
2006,04,25,17,16,20.20
2006,04,25,17,17,20.20
2006,04,25,17,18,20.20
2006,04,25,17,19,20.10
2006,04,25,17,20,20.10
2006,04,25,17,21,20.00
2006,04,25,17,22,19.90
2006,04,25,17,23,19.90
2006,04,25,17,24,19.90
2006,04,25,17,25,19.90
2006,04,25,17,26,19.90
2006,04,25,17,27,19.90
2006,04,25,17,28,19.90
2006,04,25,17,29,19.90
2006,04,25,17,30,19.90
2006,04,25,17,31,19.90
2006,04,25,17,32,19.90
2006,04,25,17,33,19.90
2006,04,25,17,34,19.90
2006,04,25,17,35,19.90
2006,04,25,17,36,19.90
2006,04,25,17,37,19.90
2006,04,25,17,38,19.90
2006,04,25,17,39,19.90
2006,04,25,17,40,19.90